Torna al catalogo

FENGYUN 1C DEB

AttivoSSO
NORAD 30441·DEBRIS·🇨🇳 China

Lanciato May 10, 1999 da Taiyuan Satellite Launch Center

Loading…

Prossimi Passaggi (prossime 24 ore)

TLE

AggiornatoSource: Space-Track

Epoca: Sep 14, 2026, 04:42 UTC

1 30441U 99025AFC 26257.19595493  .00000415  00000-0  40418-3 0  9994
2 30441  99.1236 341.0346 0183051 246.8571 111.3201 13.77952757986630

Traccia FENGYUN 1C DEB in tempo reale con AllMySat

Download on the App Store